Location: Newark
(52.2090°N, 4.1550°W)
Time: 18:54:56
(UTC+00:00)

Explorer 7 - Pass Details

Date: 23 September 2019
Orbit: 485 x 680 km, 50.3° (Epoch: 21 October)

Event Time Altitude Azimuth Distance (km) Brightness Sun altitude
Rises 03:41:51 0° 282° (WNW) 2,977 - -21.5°
Reaches altitude 10° 03:44:26 10° 271° (W) 2,085 - -21.2°
Maximum altitude 03:48:29 27° 214° (SW) 1,290 - -20.6°
Exits shadow 03:50:27 21° 178° (S) 1,523 8.8 -20.4°
Drops below altitude 10° 03:52:35 10° 157° (SSE) 2,113 9.7 -20.1°
Sets 03:55:13 0° 146° (SE) 3,024 10.7 -19.7°
